Location: Catacaguana
(10.4120°N, 66.7591°W)
Time: 05:02:47
(UTC+00:00)

YAOGAN 6 - Pass Details

Date: 27 May 2022
Orbit: 460 x 493 km, 97.1° (Epoch: 26 June)

Event Time Altitude Azimuth Distance (km) Brightness Sun altitude
Rises 08:37:31 0° 12° (NNE) 2,551 6.8 -20.2°
Reaches altitude 10° 08:39:35 10° 14° (NNE) 1,675 5.8 -19.8°
Maximum altitude 08:43:11 78° 100° (E) 506 2.6 -19.0°
Enters shadow 08:44:56 29° 183° (S) 927 3.7 -18.6°
